Location: Franzen
(48.6167°N, 15.3833°E)
Time: 09:50:21
(UTC+00:00)

Cosmos 2221 - Pass Details

Date: 22 April 2021
Orbit: 593 x 614 km, 82.5° (Epoch: 16 May)

Event Time Altitude Azimuth Distance (km) Brightness Sun altitude
Exits shadow 21:41:53 27° 269° (W) 1,146 4.0 -26.7°
Maximum altitude 21:42:39 29° 289° (WNW) 1,101 4.1 -26.7°
Drops below altitude 10° 21:46:26 10° 350° (N) 1,947 6.1 -26.9°
Sets 21:48:53 0° 2° (N) 2,858 7.1 -27.0°
